owner,sensor,date,latitude,longitude,vertical_datum,direction_of_sea_water_velocity,sea_water_speed,upward_sea_water_velocity,qcFlag 
TABS,ioos:station:wmo:42046:1,2002-10-01T00:00:00Z,27.8903,-94.0367,2.0,326.7516636,6.839656424,-99999.0,'11133222,11111222,99999999' 
TABS,ioos:station:wmo:42046:1,2002-10-01T00:30:00Z,27.8903,-94.0367,2.0,7.386236338,3.267108814,-99999.0,'11133222,11111222,99999999' 
TABS,ioos:station:wmo:42046:1,2002-10-01T01:00:00Z,27.8903,-94.0367,2.0,2.683979342,5.766324653,-99999.0,'11133222,11111222,99999999' 
TABS,ioos:station:wmo:42046:1,2002-10-01T01:30:00Z,27.8903,-94.0367,2.0,30.14980166,5.793807039,-99999.0,'11133222,11111222,99999999' 
TABS,ioos:station:wmo:42046:1,2002-10-01T02:00:00Z,27.8903,-94.0367,2.0,28.75976174,4.905058613,-99999.0,'11133222,11111222,99999999' 
TABS,ioos:station:wmo:42046:1,2002-10-01T02:30:00Z,27.8903,-94.0367,2.0,45.82775361,4.405734899,-99999.0,'11133222,11111222,99999999' 
TABS,ioos:station:wmo:42046:1,2002-10-01T03:00:00Z,27.8903,-94.0367,2.0,93.91591467,3.367862824,-99999.0,'11133222,11111222,99999999' 
TABS,ioos:station:wmo:42046:1,2002-10-01T03:30:00Z,27.8903,-94.0367,2.0,85.88270709,5.153299914,-99999.0,'11133222,11111222,99999999' 
TABS,ioos:station:wmo:42046:1,2002-10-01T04:00:00Z,27.8903,-94.0367,2.0,91.01497415,5.080797182,-99999.0,'11133222,11111222,99999999' 
TABS,ioos:station:wmo:42046:1,2002-10-01T04:30:00Z,27.8903,-94.0367,2.0,103.8971438,3.996998874,-99999.0,'11133222,11111222,99999999' 
TABS,ioos:station:wmo:42046:1,2002-10-01T05:00:00Z,27.8903,-94.0367,2.0,118.6768867,6.189167957,-99999.0,'11133222,11111222,99999999' 
TABS,ioos:station:wmo:42046:1,2002-10-01T05:30:00Z,27.8903,-94.0367,2.0,123.8561314,6.695259517,-99999.0,'11133222,11111222,99999999' 
TABS,ioos:station:wmo:42046:1,2002-10-01T06:00:00Z,27.8903,-94.0367,2.0,128.1685338,5.647450752,-99999.0,'11133222,11111222,99999999' 
TABS,ioos:station:wmo:42046:1,2002-10-01T06:30:00Z,27.8903,-94.0367,2.0,151.7717425,8.012970735,-99999.0,'11133222,11111222,99999999' 
TABS,ioos:station:wmo:42046:1,2002-10-01T07:00:00Z,27.8903,-94.0367,2.0,157.8360698,7.634088027,-99999.0,'11133222,11111222,99999999' 
TABS,ioos:station:wmo:42046:1,2002-10-01T07:30:00Z,27.8903,-94.0367,2.0,175.6906363,7.852197145,-99999.0,'11133222,11111222,99999999' 
TABS,ioos:station:wmo:42046:1,2002-10-01T08:00:00Z,27.8903,-94.0367,2.0,165.3096304,7.650071895,-99999.0,'11133222,11111222,99999999' 
TABS,ioos:station:wmo:42046:1,2002-10-01T08:30:00Z,27.8903,-94.0367,2.0,156.325743,8.069058185,-99999.0,'11133222,11111222,99999999' 
TABS,ioos:station:wmo:42046:1,2002-10-01T09:00:00Z,27.8903,-94.0367,2.0,158.6876278,9.134686639,-99999.0,'11133222,11111222,99999999' 
TABS,ioos:station:wmo:42046:1,2002-10-01T09:30:00Z,27.8903,-94.0367,2.0,173.0814193,7.222589563,-99999.0,'11133222,11111222,99999999' 
TABS,ioos:station:wmo:42046:1,2002-10-01T10:00:00Z,27.8903,-94.0367,2.0,161.9218614,6.090664988,-99999.0,'11133222,11111222,99999999' 
TABS,ioos:station:wmo:42046:1,2002-10-01T10:30:00Z,27.8903,-94.0367,2.0,170.9818551,6.571225152,-99999.0,'11133222,11111222,99999999' 
TABS,ioos:station:wmo:42046:1,2002-10-01T11:00:00Z,27.8903,-94.0367,2.0,172.9294613,6.499423051,-99999.0,'11133222,11111222,99999999' 
TABS,ioos:station:wmo:42046:1,2002-10-01T11:30:00Z,27.8903,-94.0367,2.0,168.8135652,7.268080902,-99999.0,'11133222,11111222,99999999' 
TABS,ioos:station:wmo:42046:1,2002-10-01T12:00:00Z,27.8903,-94.0367,2.0,187.2709513,6.320830642,-99999.0,'11133222,11111222,99999999' 
TABS,ioos:station:wmo:42046:1,2002-10-01T12:30:00Z,27.8903,-94.0367,2.0,184.9397617,9.17407761,-99999.0,'11133222,11111222,99999999' 
TABS,ioos:station:wmo:42046:1,2002-10-01T13:00:00Z,27.8903,-94.0367,2.0,182.6329932,8.488963423,-99999.0,'11133222,11111222,99999999' 
TABS,ioos:station:wmo:42046:1,2002-10-01T13:30:00Z,27.8903,-94.0367,2.0,192.7964753,6.727087037,-99999.0,'11133222,11111222,99999999' 
TABS,ioos:station:wmo:42046:1,2002-10-01T14:00:00Z,27.8903,-94.0367,2.0,246.6926854,11.80315636,-99999.0,'11111222,11111222,99999999' 
TABS,ioos:station:wmo:42046:1,2002-10-01T14:30:00Z,27.8903,-94.0367,2.0,279.0776145,20.79036556,-99999.0,'11111222,11111222,99999999' 
TABS,ioos:station:wmo:42046:1,2002-10-01T15:00:00Z,27.8903,-94.0367,2.0,283.1479622,24.70765064,-99999.0,'11111222,11111222,99999999' 
TABS,ioos:station:wmo:42046:1,2002-10-01T15:30:00Z,27.8903,-94.0367,2.0,284.4076903,24.71732388,-99999.0,'11111222,11111222,99999999' 
TABS,ioos:station:wmo:42046:1,2002-10-01T16:00:00Z,27.8903,-94.0367,2.0,281.7316428,25.87037881,-99999.0,'11111222,11111222,99999999' 
TABS,ioos:station:wmo:42046:1,2002-10-01T16:30:00Z,27.8903,-94.0367,2.0,283.7941973,25.79389463,-99999.0,'11111222,11111222,99999999' 
TABS,ioos:station:wmo:42046:1,2002-10-01T17:00:00Z,27.8903,-94.0367,2.0,290.6627672,22.7001696,-99999.0,'11111222,11111222,99999999' 
TABS,ioos:station:wmo:42046:1,2002-10-01T17:30:00Z,27.8903,-94.0367,2.0,289.2782838,24.50397927,-99999.0,'11111222,11111222,99999999' 
TABS,ioos:station:wmo:42046:1,2002-10-01T18:00:00Z,27.8903,-94.0367,2.0,286.3926632,23.5992627,-99999.0,'11111222,11111222,99999999' 
TABS,ioos:station:wmo:42046:1,2002-10-01T18:30:00Z,27.8903,-94.0367,2.0,286.8644662,26.30106082,-99999.0,'11111222,11111222,99999999' 
TABS,ioos:station:wmo:42046:1,2002-10-01T19:00:00Z,27.8903,-94.0367,2.0,288.4842137,29.64952613,-99999.0,'11111222,11111222,99999999' 
TABS,ioos:station:wmo:42046:1,2002-10-01T19:30:00Z,27.8903,-94.0367,2.0,288.5189699,32.49243758,-99999.0,'11111222,11111222,99999999' 
TABS,ioos:station:wmo:42046:1,2002-10-01T20:00:00Z,27.8903,-94.0367,2.0,290.9720491,34.36652586,-99999.0,'11111222,11111222,99999999' 
TABS,ioos:station:wmo:42046:1,2002-10-01T20:30:00Z,27.8903,-94.0367,2.0,291.6945689,37.7110753,-99999.0,'11111222,11111222,99999999' 
TABS,ioos:station:wmo:42046:1,2002-10-01T21:00:00Z,27.8903,-94.0367,2.0,290.5860219,38.50888339,-99999.0,'11111222,11111222,99999999' 
TABS,ioos:station:wmo:42046:1,2002-10-01T21:30:00Z,27.8903,-94.0367,2.0,289.3662596,40.28957309,-99999.0,'11111222,11111222,99999999' 
TABS,ioos:station:wmo:42046:1,2002-10-01T22:00:00Z,27.8903,-94.0367,2.0,289.4584378,38.78519434,-99999.0,'11111222,11111222,99999999' 
TABS,ioos:station:wmo:42046:1,2002-10-01T22:30:00Z,27.8903,-94.0367,2.0,293.3034176,39.61127743,-99999.0,'11111222,11111222,99999999' 
TABS,ioos:station:wmo:42046:1,2002-10-01T23:00:00Z,27.8903,-94.0367,2.0,295.816445,37.29185568,-99999.0,'11111222,11111222,99999999' 
TABS,ioos:station:wmo:42046:1,2002-10-01T23:30:00Z,27.8903,-94.0367,2.0,300.2119968,38.67283284,-99999.0,'11111222,11111222,99999999' 
TABS,ioos:station:wmo:42046:1,2002-10-02T00:00:00Z,27.8903,-94.0367,2.0,302.821011,37.47153853,-99999.0,'11111222,11111222,99999999' 
TABS,ioos:station:wmo:42046:1,2002-10-02T00:30:00Z,27.8903,-94.0367,2.0,306.0614929,6.234621079,-99999.0,'11133222,11111222,99999999' 
TABS,ioos:station:wmo:42046:1,2002-10-02T01:00:00Z,27.8903,-94.0367,2.0,311.8399615,20.77811349,-99999.0,'11111222,11111222,99999999' 
TABS,ioos:station:wmo:42046:1,2002-10-02T01:30:00Z,27.8903,-94.0367,2.0,302.2200044,40.53142238,-99999.0,'11111222,11111222,99999999' 
TABS,ioos:station:wmo:42046:1,2002-10-02T02:00:00Z,27.8903,-94.0367,2.0,300.7312813,37.98382024,-99999.0,'11111222,11111222,99999999' 
TABS,ioos:station:wmo:42046:1,2002-10-02T02:30:00Z,27.8903,-94.0367,2.0,301.4846152,36.24600668,-99999.0,'11111222,11111222,99999999' 
TABS,ioos:station:wmo:42046:1,2002-10-02T03:00:00Z,27.8903,-94.0367,2.0,303.748764,38.12456426,-99999.0,'11111222,11111222,99999999' 
TABS,ioos:station:wmo:42046:1,2002-10-02T03:30:00Z,27.8903,-94.0367,2.0,301.1307924,37.13817578,-99999.0,'11111222,11111222,99999999' 
TABS,ioos:station:wmo:42046:1,2002-10-02T04:00:00Z,27.8903,-94.0367,2.0,299.9723865,33.78856759,-99999.0,'11111222,11111222,99999999' 
TABS,ioos:station:wmo:42046:1,2002-10-02T04:30:00Z,27.8903,-94.0367,2.0,302.1615294,34.30377822,-99999.0,'11111222,11111222,99999999' 
TABS,ioos:station:wmo:42046:1,2002-10-02T05:00:00Z,27.8903,-94.0367,2.0,297.5369211,35.34389905,-99999.0,'11111222,11111222,99999999' 
TABS,ioos:station:wmo:42046:1,2002-10-02T05:30:00Z,27.8903,-94.0367,2.0,298.8328887,32.32755017,-99999.0,'11111222,11111222,99999999' 
TABS,ioos:station:wmo:42046:1,2002-10-02T06:00:00Z,27.8903,-94.0367,2.0,297.2900472,33.2395728,-99999.0,'11111222,11111222,99999999' 
TABS,ioos:station:wmo:42046:1,2002-10-02T06:30:00Z,27.8903,-94.0367,2.0,298.9516627,33.94163962,-99999.0,'11111222,11111222,99999999' 
TABS,ioos:station:wmo:42046:1,2002-10-02T07:00:00Z,27.8903,-94.0367,2.0,301.781426,32.22100247,-99999.0,'11111222,11111222,99999999' 
TABS,ioos:station:wmo:42046:1,2002-10-02T07:30:00Z,27.8903,-94.0367,2.0,298.6867988,31.8947723,-99999.0,'11111222,11111222,99999999' 
TABS,ioos:station:wmo:42046:1,2002-10-02T08:00:00Z,27.8903,-94.0367,2.0,302.5168818,31.01147207,-99999.0,'11111222,11111222,99999999' 
TABS,ioos:station:wmo:42046:1,2002-10-02T08:30:00Z,27.8903,-94.0367,2.0,304.890421,29.92986635,-99999.0,'11111222,11111222,99999999' 
TABS,ioos:station:wmo:42046:1,2002-10-02T09:00:00Z,27.8903,-94.0367,2.0,307.9469014,29.48320539,-99999.0,'11111222,11111222,99999999' 
TABS,ioos:station:wmo:42046:1,2002-10-02T09:30:00Z,27.8903,-94.0367,2.0,303.5917542,27.38281578,-99999.0,'11111222,11111222,99999999' 
TABS,ioos:station:wmo:42046:1,2002-10-02T10:00:00Z,27.8903,-94.0367,2.0,309.8545875,27.1207817,-99999.0,'11111222,11111222,99999999' 
TABS,ioos:station:wmo:42046:1,2002-10-02T10:30:00Z,27.8903,-94.0367,2.0,304.3476685,12.81441766,-99999.0,'11111222,11111222,99999999' 
TABS,ioos:station:wmo:42046:1,2002-10-02T11:00:00Z,27.8903,-94.0367,2.0,309.4009894,26.81415298,-99999.0,'11111222,11111222,99999999' 
TABS,ioos:station:wmo:42046:1,2002-10-02T11:30:00Z,27.8903,-94.0367,2.0,302.6572368,27.68681455,-99999.0,'11111222,11111222,99999999' 
TABS,ioos:station:wmo:42046:1,2002-10-02T12:00:00Z,27.8903,-94.0367,2.0,302.1596667,25.64462127,-99999.0,'11111222,11111222,99999999' 
TABS,ioos:station:wmo:42046:1,2002-10-02T12:30:00Z,27.8903,-94.0367,2.0,305.5911163,26.34056378,-99999.0,'11111222,11111222,99999999' 
TABS,ioos:station:wmo:42046:1,2002-10-02T13:00:00Z,27.8903,-94.0367,2.0,304.2661054,26.49936603,-99999.0,'11111222,11111222,99999999' 
TABS,ioos:station:wmo:42046:1,2002-10-02T13:30:00Z,27.8903,-94.0367,2.0,302.6452713,26.30548612,-99999.0,'11111222,11111222,99999999' 
TABS,ioos:station:wmo:42046:1,2002-10-02T14:00:00Z,27.8903,-94.0367,2.0,304.2980215,25.89208759,-99999.0,'11111222,11111222,99999999' 
TABS,ioos:station:wmo:42046:1,2002-10-02T14:30:00Z,27.8903,-94.0367,2.0,297.9430702,27.52948238,-99999.0,'11111222,11111222,99999999' 
TABS,ioos:station:wmo:42046:1,2002-10-02T15:00:00Z,27.8903,-94.0367,2.0,300.9211167,25.14341464,-99999.0,'11111222,11111222,99999999' 
TABS,ioos:station:wmo:42046:1,2002-10-02T15:30:00Z,27.8903,-94.0367,2.0,297.5835439,26.17507211,-99999.0,'11111222,11111222,99999999' 
TABS,ioos:station:wmo:42046:1,2002-10-02T16:00:00Z,27.8903,-94.0367,2.0,295.575697,24.85536763,-99999.0,'11111222,11111222,99999999' 
TABS,ioos:station:wmo:42046:1,2002-10-02T16:30:00Z,27.8903,-94.0367,2.0,292.7492649,24.59313929,-99999.0,'11111222,11111222,99999999' 
TABS,ioos:station:wmo:42046:1,2002-10-02T17:00:00Z,27.8903,-94.0367,2.0,295.9128947,21.99091858,-99999.0,'11111222,11111222,99999999' 
TABS,ioos:station:wmo:42046:1,2002-10-02T17:30:00Z,27.8903,-94.0367,2.0,291.8153042,23.60002119,-99999.0,'11111222,11111222,99999999' 
TABS,ioos:station:wmo:42046:1,2002-10-02T18:00:00Z,27.8903,-94.0367,2.0,285.0751628,23.68506914,-99999.0,'11111222,11111222,99999999' 
TABS,ioos:station:wmo:42046:1,2002-10-02T18:30:00Z,27.8903,-94.0367,2.0,284.4090214,23.50947469,-99999.0,'11111222,11111222,99999999' 
TABS,ioos:station:wmo:42046:1,2002-10-02T19:00:00Z,27.8903,-94.0367,2.0,281.3630368,23.4496162,-99999.0,'11111222,11111222,99999999' 
TABS,ioos:station:wmo:42046:1,2002-10-02T19:30:00Z,27.8903,-94.0367,2.0,274.7196975,24.67364991,-99999.0,'11111222,11111222,99999999' 
TABS,ioos:station:wmo:42046:1,2002-10-02T20:00:00Z,27.8903,-94.0367,2.0,271.8797958,25.00344976,-99999.0,'11111222,11111222,99999999' 
TABS,ioos:station:wmo:42046:1,2002-10-02T20:30:00Z,27.8903,-94.0367,2.0,268.0190954,24.88486488,-99999.0,'11111222,11111222,99999999' 
TABS,ioos:station:wmo:42046:1,2002-10-02T21:00:00Z,27.8903,-94.0367,2.0,258.5661413,29.10762443,-99999.0,'11111222,11111222,99999999' 
TABS,ioos:station:wmo:42046:1,2002-10-02T21:30:00Z,27.8903,-94.0367,2.0,259.2200987,27.96343684,-99999.0,'11111222,11111222,99999999' 
TABS,ioos:station:wmo:42046:1,2002-10-02T22:00:00Z,27.8903,-94.0367,2.0,250.2246687,32.45384415,-99999.0,'11111222,11111222,99999999' 
TABS,ioos:station:wmo:42046:1,2002-10-02T22:30:00Z,27.8903,-94.0367,2.0,251.8453205,33.57114237,-99999.0,'11111222,11111222,99999999' 
TABS,ioos:station:wmo:42046:1,2002-10-02T23:00:00Z,27.8903,-94.0367,2.0,245.3333446,38.60231211,-99999.0,'11111222,11111222,99999999' 
TABS,ioos:station:wmo:42046:1,2002-10-02T23:30:00Z,27.8903,-94.0367,2.0,246.8977293,38.1275032,-99999.0,'11111222,11111222,99999999' 
TABS,ioos:station:wmo:42046:1,2002-10-03T00:00:00Z,27.8903,-94.0367,2.0,251.6146696,36.23971578,-99999.0,'11111222,11111222,99999999' 
TABS,ioos:station:wmo:42046:1,2002-10-03T00:30:00Z,27.8903,-94.0367,2.0,256.4553269,29.3769978,-99999.0,'11111222,11111222,99999999' 
TABS,ioos:station:wmo:42046:1,2002-10-03T01:00:00Z,27.8903,-94.0367,2.0,256.7940231,41.32271167,-99999.0,'11111222,11111222,99999999' 
TABS,ioos:station:wmo:42046:1,2002-10-03T01:30:00Z,27.8903,-94.0367,2.0,256.9382823,39.91258949,-99999.0,'11111222,11111222,99999999' 
TABS,ioos:station:wmo:42046:1,2002-10-03T02:00:00Z,27.8903,-94.0367,2.0,259.1095222,38.00440501,-99999.0,'11111222,11111222,99999999' 
TABS,ioos:station:wmo:42046:1,2002-10-03T02:30:00Z,27.8903,-94.0367,2.0,259.4931005,38.88188524,-99999.0,'11111222,11111222,99999999' 
TABS,ioos:station:wmo:42046:1,2002-10-03T03:00:00Z,27.8903,-94.0367,2.0,258.4170507,40.39253644,-99999.0,'11111222,11111222,99999999' 
TABS,ioos:station:wmo:42046:1,2002-10-03T03:30:00Z,27.8903,-94.0367,2.0,257.3276241,39.93268336,-99999.0,'11111222,11111222,99999999' 
TABS,ioos:station:wmo:42046:1,2002-10-03T04:00:00Z,27.8903,-94.0367,2.0,258.658511,39.6644942,-99999.0,'11111222,11111222,99999999' 
TABS,ioos:station:wmo:42046:1,2002-10-03T04:30:00Z,27.8903,-94.0367,2.0,256.9899876,40.0684664,-99999.0,'11111222,11111222,99999999' 
TABS,ioos:station:wmo:42046:1,2002-10-03T05:00:00Z,27.8903,-94.0367,2.0,251.7022548,38.19093741,-99999.0,'11111222,11111222,99999999' 
TABS,ioos:station:wmo:42046:1,2002-10-03T05:30:00Z,27.8903,-94.0367,2.0,252.6814524,38.12849984,-99999.0,'11111222,11111222,99999999' 
TABS,ioos:station:wmo:42046:1,2002-10-03T06:00:00Z,27.8903,-94.0367,2.0,251.7145399,35.06029235,-99999.0,'11111222,11111222,99999999' 
TABS,ioos:station:wmo:42046:1,2002-10-03T06:30:00Z,27.8903,-94.0367,2.0,244.2683014,39.34107268,-99999.0,'11111222,11111222,99999999' 
TABS,ioos:station:wmo:42046:1,2002-10-03T07:00:00Z,27.8903,-94.0367,2.0,242.4960952,36.31414325,-99999.0,'11111222,11111222,99999999' 
TABS,ioos:station:wmo:42046:1,2002-10-03T07:30:00Z,27.8903,-94.0367,2.0,241.7040886,37.31910637,-99999.0,'11111222,11111222,99999999' 
TABS,ioos:station:wmo:42046:1,2002-10-03T08:00:00Z,27.8903,-94.0367,2.0,238.7528669,38.18977088,-99999.0,'11111222,11111222,99999999' 
TABS,ioos:station:wmo:42046:1,2002-10-03T08:30:00Z,27.8903,-94.0367,2.0,237.5520398,39.14052759,-99999.0,'11111222,11111222,99999999' 
TABS,ioos:station:wmo:42046:1,2002-10-03T09:00:00Z,27.8903,-94.0367,2.0,229.842277,39.2005102,-99999.0,'11111222,11111222,99999999' 
TABS,ioos:station:wmo:42046:1,2002-10-03T09:30:00Z,27.8903,-94.0367,2.0,229.9329316,38.48188405,-99999.0,'11111222,11111222,99999999' 
TABS,ioos:station:wmo:42046:1,2002-10-03T10:00:00Z,27.8903,-94.0367,2.0,223.641334,34.60138726,-99999.0,'11111222,11111222,99999999' 
TABS,ioos:station:wmo:42046:1,2002-10-03T10:30:00Z,27.8903,-94.0367,2.0,214.0919275,34.37839147,-99999.0,'11111222,11111222,99999999' 
TABS,ioos:station:wmo:42046:1,2002-10-03T11:00:00Z,27.8903,-94.0367,2.0,219.7526982,29.30509341,-99999.0,'11111222,11111222,99999999' 
TABS,ioos:station:wmo:42046:1,2002-10-03T11:30:00Z,27.8903,-94.0367,2.0,209.6351349,31.81124644,-99999.0,'11111222,11111222,99999999' 
TABS,ioos:station:wmo:42046:1,2002-10-03T12:00:00Z,27.8903,-94.0367,2.0,204.2617864,28.93573051,-99999.0,'11111222,11111222,99999999' 
TABS,ioos:station:wmo:42046:1,2002-10-03T12:30:00Z,27.8903,-94.0367,2.0,195.6419994,30.37496667,-99999.0,'11111222,11111222,99999999' 
TABS,ioos:station:wmo:42046:1,2002-10-03T13:00:00Z,27.8903,-94.0367,2.0,197.3808395,36.62220774,-99999.0,'11111222,11111222,99999999' 
TABS,ioos:station:wmo:42046:1,2002-10-03T13:30:00Z,27.8903,-94.0367,2.0,189.6285378,32.82239632,-99999.0,'11111222,11111222,99999999' 
TABS,ioos:station:wmo:42046:1,2002-10-03T14:00:00Z,27.8903,-94.0367,2.0,192.9228674,34.83226378,-99999.0,'11111222,11111222,99999999' 
TABS,ioos:station:wmo:42046:1,2002-10-03T14:30:00Z,27.8903,-94.0367,2.0,191.884927,33.7944744,-99999.0,'11111222,11111222,99999999' 
TABS,ioos:station:wmo:42046:1,2002-10-03T15:00:00Z,27.8903,-94.0367,2.0,184.5389583,32.22106299,-99999.0,'11111222,11111222,99999999' 
TABS,ioos:station:wmo:42046:1,2002-10-03T15:30:00Z,27.8903,-94.0367,2.0,181.2350292,28.29657576,-99999.0,'11111222,11111222,99999999' 
TABS,ioos:station:wmo:42046:1,2002-10-03T16:00:00Z,27.8903,-94.0367,2.0,187.3528691,25.55011742,-99999.0,'11111222,11111222,99999999' 
TABS,ioos:station:wmo:42046:1,2002-10-03T16:30:00Z,27.8903,-94.0367,2.0,168.4657038,22.55548935,-99999.0,'11111222,11111222,99999999' 
TABS,ioos:station:wmo:42046:1,2002-10-03T17:00:00Z,27.8903,-94.0367,2.0,178.7648349,22.73528095,-99999.0,'11111222,11111222,99999999' 
TABS,ioos:station:wmo:42046:1,2002-10-03T17:30:00Z,27.8903,-94.0367,2.0,174.7673373,21.82093032,-99999.0,'11111222,11111222,99999999' 
TABS,ioos:station:wmo:42046:1,2002-10-03T18:00:00Z,27.8903,-94.0367,2.0,171.7689866,23.33031719,-99999.0,'11111222,11111222,99999999' 
TABS,ioos:station:wmo:42046:1,2002-10-03T18:30:00Z,27.8903,-94.0367,2.0,172.4945014,23.73332889,-99999.0,'11111222,11111222,99999999' 
TABS,ioos:station:wmo:42046:1,2002-10-03T19:00:00Z,27.8903,-94.0367,2.0,166.0666285,22.92450436,-99999.0,'11111222,11111222,99999999' 
TABS,ioos:station:wmo:42046:1,2002-10-03T19:30:00Z,27.8903,-94.0367,2.0,166.5487767,19.94717023,-99999.0,'11111222,11111222,99999999' 
TABS,ioos:station:wmo:42046:1,2002-10-03T20:00:00Z,27.8903,-94.0367,2.0,169.7024149,20.64248532,-99999.0,'11111222,11111222,99999999' 
TABS,ioos:station:wmo:42046:1,2002-10-03T20:30:00Z,27.8903,-94.0367,2.0,169.884732,18.90382236,-99999.0,'11111222,11111222,99999999' 
TABS,ioos:station:wmo:42046:1,2002-10-03T21:00:00Z,27.8903,-94.0367,2.0,166.7457479,19.36584881,-99999.0,'11111222,11111222,99999999' 
TABS,ioos:station:wmo:42046:1,2002-10-03T21:30:00Z,27.8903,-94.0367,2.0,162.1221366,17.55779599,-99999.0,'11111222,11111222,99999999' 
TABS,ioos:station:wmo:42046:1,2002-10-03T22:00:00Z,27.8903,-94.0367,2.0,154.7472959,16.00997502,-99999.0,'11111222,11111222,99999999' 
TABS,ioos:station:wmo:42046:1,2002-10-03T22:30:00Z,27.8903,-94.0367,2.0,179.1554938,9.501031523,-99999.0,'11133222,11111222,99999999' 
TABS,ioos:station:wmo:42046:1,2002-10-03T23:00:00Z,27.8903,-94.0367,2.0,160.6953708,7.501786454,-99999.0,'11133222,11111222,99999999' 
TABS,ioos:station:wmo:42046:1,2002-10-03T23:30:00Z,27.8903,-94.0367,2.0,156.1167501,4.396453116,-99999.0,'11133222,11111222,99999999' 
TABS,ioos:station:wmo:42046:1,2002-10-04T00:00:00Z,27.8903,-94.0367,2.0,87.45084978,2.922892403,-99999.0,'11133222,11111222,99999999' 
TABS,ioos:station:wmo:42046:1,2002-10-04T00:30:00Z,27.8903,-94.0367,2.0,79.33967663,3.459710971,-99999.0,'11133222,11111222,99999999' 
TABS,ioos:station:wmo:42046:1,2002-10-04T01:00:00Z,27.8903,-94.0367,2.0,13.67853132,4.27113568,-99999.0,'11133222,11111222,99999999' 
TABS,ioos:station:wmo:42046:1,2002-10-04T01:30:00Z,27.8903,-94.0367,2.0,12.14610853,8.602569384,-99999.0,'11133222,11111222,99999999' 
TABS,ioos:station:wmo:42046:1,2002-10-04T02:00:00Z,27.8903,-94.0367,2.0,13.92901107,9.056296152,-99999.0,'11133222,11111222,99999999' 
TABS,ioos:station:wmo:42046:1,2002-10-04T02:30:00Z,27.8903,-94.0367,2.0,8.392303949,11.44252158,-99999.0,'11111222,11111222,99999999' 
TABS,ioos:station:wmo:42046:1,2002-10-04T03:00:00Z,27.8903,-94.0367,2.0,359.2656911,10.9208974,-99999.0,'11111222,11144222,99999999' 
TABS,ioos:station:wmo:42046:1,2002-10-04T03:30:00Z,27.8903,-94.0367,2.0,6.460467897,14.75368429,-99999.0,'11111222,11111222,99999999' 
TABS,ioos:station:wmo:42046:1,2002-10-04T04:00:00Z,27.8903,-94.0367,2.0,7.735157683,15.37993823,-99999.0,'11111222,11111222,99999999' 
TABS,ioos:station:wmo:42046:1,2002-10-04T04:30:00Z,27.8903,-94.0367,2.0,14.4894666,13.18949961,-99999.0,'11111222,11111222,99999999' 
TABS,ioos:station:wmo:42046:1,2002-10-04T05:00:00Z,27.8903,-94.0367,2.0,20.73111745,13.41883005,-99999.0,'11111222,11111222,99999999' 
TABS,ioos:station:wmo:42046:1,2002-10-04T05:30:00Z,27.8903,-94.0367,2.0,26.20660836,12.86211491,-99999.0,'11111222,11111222,99999999' 
TABS,ioos:station:wmo:42046:1,2002-10-04T06:00:00Z,27.8903,-94.0367,2.0,29.87977758,11.60224116,-99999.0,'11111222,11111222,99999999' 
TABS,ioos:station:wmo:42046:1,2002-10-04T06:30:00Z,27.8903,-94.0367,2.0,32.52803645,11.6233601,-99999.0,'11111222,11111222,99999999' 
TABS,ioos:station:wmo:42046:1,2002-10-04T07:00:00Z,27.8903,-94.0367,2.0,41.27605597,10.77785229,-99999.0,'11111222,11111222,99999999' 
TABS,ioos:station:wmo:42046:1,2002-10-04T07:30:00Z,27.8903,-94.0367,2.0,40.72502517,10.05475012,-99999.0,'11111222,11111222,99999999' 
TABS,ioos:station:wmo:42046:1,2002-10-04T08:00:00Z,27.8903,-94.0367,2.0,56.89191909,13.10824168,-99999.0,'11111222,11111222,99999999' 
TABS,ioos:station:wmo:42046:1,2002-10-04T08:30:00Z,27.8903,-94.0367,2.0,64.20773773,13.92749798,-99999.0,'11111222,11111222,99999999' 
TABS,ioos:station:wmo:42046:1,2002-10-04T09:00:00Z,27.8903,-94.0367,2.0,64.47775017,12.53300044,-99999.0,'11111222,11111222,99999999' 
TABS,ioos:station:wmo:42046:1,2002-10-04T09:30:00Z,27.8903,-94.0367,2.0,68.4975092,14.59585215,-99999.0,'11111222,11111222,99999999' 
TABS,ioos:station:wmo:42046:1,2002-10-04T10:00:00Z,27.8903,-94.0367,2.0,70.96704037,15.1481352,-99999.0,'11111222,11111222,99999999' 
TABS,ioos:station:wmo:42046:1,2002-10-04T10:30:00Z,27.8903,-94.0367,2.0,73.13299274,15.37126215,-99999.0,'11111222,11111222,99999999' 
TABS,ioos:station:wmo:42046:1,2002-10-04T11:00:00Z,27.8903,-94.0367,2.0,66.32525115,15.16641685,-99999.0,'11111222,11111222,99999999' 
TABS,ioos:station:wmo:42046:1,2002-10-04T11:30:00Z,27.8903,-94.0367,2.0,65.74353317,15.43244958,-99999.0,'11111222,11111222,99999999' 
TABS,ioos:station:wmo:42046:1,2002-10-04T12:00:00Z,27.8903,-94.0367,2.0,63.43501094,14.19903166,-99999.0,'11111222,11111222,99999999' 
TABS,ioos:station:wmo:42046:1,2002-10-04T12:30:00Z,27.8903,-94.0367,2.0,59.32502259,14.97544657,-99999.0,'11111222,11111222,99999999' 
TABS,ioos:station:wmo:42046:1,2002-10-04T13:00:00Z,27.8903,-94.0367,2.0,61.2444422,16.37998779,-99999.0,'11111222,11111222,99999999' 
TABS,ioos:station:wmo:42046:1,2002-10-04T13:30:00Z,27.8903,-94.0367,2.0,64.50844337,17.42649994,-99999.0,'11111222,11111222,99999999' 
TABS,ioos:station:wmo:42046:1,2002-10-04T14:00:00Z,27.8903,-94.0367,2.0,59.45206645,18.67154252,-99999.0,'11111222,11111222,99999999' 
TABS,ioos:station:wmo:42046:1,2002-10-04T14:30:00Z,27.8903,-94.0367,2.0,67.77375625,18.02965613,-99999.0,'11111222,11111222,99999999' 
TABS,ioos:station:wmo:42046:1,2002-10-04T15:00:00Z,27.8903,-94.0367,2.0,66.81773628,18.49319875,-99999.0,'11111222,11111222,99999999' 
TABS,ioos:station:wmo:42046:1,2002-10-04T15:30:00Z,27.8903,-94.0367,2.0,70.20233665,18.48241597,-99999.0,'11111222,11111222,99999999' 
TABS,ioos:station:wmo:42046:1,2002-10-04T16:00:00Z,27.8903,-94.0367,2.0,76.95477565,17.80962942,-99999.0,'11111222,11111222,99999999' 